Surface/Precipitation History
12/06/2017 18:37  to  12/7/2017 18:37
Change End Date:
Date/Time
(MDT)
Sf
Temp Chem Water Layer Surface Precipitation
Sfc Pvt Sub Frz Factor Pct Dpth DpthThk IcePct Cond Salin FI Type Intens Accum Rate
12/07/2017 18:35 Ice Warning 19.6F - - 32F 10 0% - - 100% 0 mhos 0 - None None 0.00 in 0.0 iph
12/07/2017 18:29 Ice Warning 19.8F - - 32F 10 0% - - 100% 0 mhos 0 - None None 0.00 in 0.0 iph
12/07/2017 18:25 Ice Warning 20.1F - - 32F 5 0% - - 100% 0 mhos 0 - None None 0.00 in 0.0 iph
12/07/2017 18:15 Ice Warning 20.1F - - 32F 5 0% - - 100% 0 mhos 0 - None None 0.00 in 0.0 iph
12/07/2017 18:14 Ice Warning 20.3F - - 32F 5 0% - - 100% 0 mhos 0 - None None 0.00 in 0.0 iph
12/07/2017 18:04 Ice Warning 20.3F - - 32F 5 0% - - 100% 0 mhos 0 - None None 0.00 in 0.0 iph
12/07/2017 17:59 Ice Warning 20.3F - - 32F 5 0% - - 100% 0 mhos 0 - None None 0.00 in 0.0 iph
12/07/2017 17:54 Ice Warning 20.5F - - 32F 5 0% - - 100% 0 mhos 0 - None None 0.00 in 0.0 iph
12/07/2017 17:44 Ice Warning 20.5F - - 32F 5 0% - - 100% 0 mhos 0 - None None 0.01 in 0.0 iph
12/07/2017 17:43 Ice Warning 20.7F - - 32F 5 0% - - 100% 0 mhos 0 - None None 0.01 in 0.0 iph
12/07/2017 17:34 Ice Warning 20.7F - - 32F 5 0% - - 100% 0 mhos 0 - None None 0.01 in 0.0 iph
12/07/2017 17:28 Ice Warning 20.8F - - 32F 5 0% - - 100% 0 mhos 0 - None None 0.01 in 0.0 iph
12/07/2017 17:24 Ice Warning 20.8F - - 32F 5 0% - - 100% 0 mhos 0 - None None 0.01 in 0.0 iph
12/07/2017 17:14 Ice Warning 21.0F - - 32F 5 0% - - 100% 0 mhos 0 - None None 0.02 in 0.0 iph
12/07/2017 17:13 Ice Warning 21.0F - - 32F 5 0% - - 100% 0 mhos 0 - None None 0.02 in 0.0 iph
Date/Time
(MDT)
Sf
Temp Chem Water Layer Surface Precipitation
Sfc Pvt Sub Frz Factor Pct Dpth DpthThk IcePct Cond Salin FI Type Intens Accum Rate
12/07/2017 17:04 Ice Warning 21.4F - - 32F 5 0% - - 100% 0 mhos 0 - None None 0.02 in 0.0 iph
12/07/2017 16:58 Ice Warning 21.4F - - 32F 5 0% - - 100% 0 mhos 0 - None None 0.02 in 0.0 iph
12/07/2017 16:54 Ice Warning 21.6F - - 32F 5 0% - - 100% 0 mhos 0 - None None 0.02 in 0.0 iph
12/07/2017 16:44 Ice Warning 22.1F - - 32F 5 0% - - 100% 0 mhos 0 - None None 0.03 in 0.0 iph
12/07/2017 16:43 Ice Warning 22.1F - - 32F 5 0% - - 100% 0 mhos 0 - None None 0.03 in 0.0 iph
12/07/2017 16:34 Ice Warning 22.5F - - 32F 5 0% - - 100% 0 mhos 0 - None None 0.03 in 0.0 iph
12/07/2017 16:29 Ice Warning 22.6F - - 32F 5 0% - - 100% 0 mhos 0 - None None 0.03 in 0.0 iph
12/07/2017 16:24 Ice Warning 23.0F - - 32F 5 0% - - 100% 0 mhos 0 - None None 0.03 in 0.0 iph
12/07/2017 16:14 Ice Warning 23.5F - - 32F 5 0% - - 100% 0 mhos 0 - None None 0.03 in 0.0 iph
12/07/2017 16:13 Ice Warning 23.5F - - 32F 5 0% - - 100% 0 mhos 0 - None None 0.03 in 0.0 iph
12/07/2017 16:04 Ice Warning 24.4F - - 32F 5 0% - - 100% 0 mhos 0 - None None 0.03 in 0.0 iph
12/07/2017 15:58 Ice Warning 24.8F - - 32F 5 0% - - 100% 0 mhos 0 - None None 0.03 in 0.0 iph
12/07/2017 15:54 Ice Warning 25.3F - - 32F 5 0% - - 100% 0 mhos 0 - None None 0.03 in 0.0 iph
12/07/2017 15:44 Ice Warning 27.0F - - 32F 5 0% - - 100% 0 mhos 0 - None None 0.03 in 0.0 iph
12/07/2017 15:43 Ice Warning 27.0F - - 32F 5 0% - - 100% 0 mhos 0 - None None 0.03 in 0.0 iph
Date/Time
(MDT)
Sf
Temp Chem Water Layer Surface Precipitation
Sfc Pvt Sub Frz Factor Pct Dpth DpthThk IcePct Cond Salin FI Type Intens Accum Rate
12/07/2017 15:34 Ice Warning 28.0F - - 32F 5 0% - - 100% 0 mhos 0 - None None 0.03 in 0.0 iph
12/07/2017 15:29 Ice Warning 28.4F - - 32F 5 0% - - 100% 0 mhos 0 - None None 0.03 in 0.0 iph
12/07/2017 15:23 Ice Warning 28.6F - - 32F 5 0% - - 100% 0 mhos 0 - None None 0.03 in 0.0 iph
12/07/2017 15:14 Ice Warning 29.1F - - 32F 5 0% - - 100% 0 mhos 0 - None None 0.03 in 0.0 iph
12/07/2017 15:13 Ice Warning 29.1F - - 32F 5 0% - - 100% 0 mhos 0 - None None 0.03 in 0.0 iph
12/07/2017 15:03 Ice Warning 30.0F - - 32F 5 0% - - 100% 0 mhos 0 - None None 0.03 in 0.0 iph
12/07/2017 14:59 Ice Warning 30.4F - - 32F 5 0% - - 100% 0 mhos 0 - None None 0.03 in 0.0 iph
12/07/2017 14:53 Ice Warning 30.6F - - 32F 5 0% - - 100% 0 mhos 0 - None None 0.03 in 0.0 iph
12/07/2017 14:44 Ice Warning 31.1F - - 32F 5 0% - - 100% 0 mhos 0 - None None 0.03 in 0.0 iph
12/07/2017 14:43 Ice Warning 31.1F - - 32F 5 0% - - 100% 0 mhos 0 - None None 0.03 in 0.0 iph
12/07/2017 14:33 Ice Warning 31.3F - - 32F 5 0% - - 100% 0 mhos 0 - None None 0.03 in 0.0 iph
12/07/2017 14:29 Ice Warning 31.3F - - 32F 5 0% - - 100% 0 mhos 0 - None None 0.03 in 0.0 iph
12/07/2017 14:23 Ice Warning 31.3F - - 32F 5 0% - - 100% 0 mhos 0 - None None 0.03 in 0.0 iph
12/07/2017 14:13 Ice Warning 31.6F - - 32F 5 0% - - 100% 0 mhos 0 - None None 0.03 in 0.0 iph
12/07/2017 14:13 Ice Warning 31.6F - - 32F 5 0% - - 100% 0 mhos 0 - None None 0.03 in 0.0 iph
Date/Time
(MDT)
Sf
Temp Chem Water Layer Surface Precipitation
Sfc Pvt Sub Frz Factor Pct Dpth DpthThk IcePct Cond Salin FI Type Intens Accum Rate
12/07/2017 14:03 Ice Warning 31.5F - - 32F 5 0% - - 100% 0 mhos 0 - None None 0.03 in 0.0 iph
12/07/2017 13:58 Ice Warning 31.6F - - 32F 5 0% - - 100% 0 mhos 0 - None None 0.03 in 0.0 iph
12/07/2017 13:53 Ice Warning 31.5F - - 32F 5 0% - - 100% 0 mhos 0 - None None 0.03 in 0.0 iph
12/07/2017 13:44 Ice Warning 31.1F - - 32F 5 0% - - 100% 0 mhos 2 - None None 0.03 in 0.0 iph
12/07/2017 13:43 Ice Warning 30.7F - - 32F 5 0% - - 100% 0 mhos 2 - None None 0.03 in 0.0 iph
12/07/2017 13:33 Ice Warning 29.8F - - 32F 55 0% - - 100% 0 mhos 4 - None None 0.03 in 0.0 iph
12/07/2017 13:28 Ice Warning 30.6F - - 32F 15 0% - - 100% 0 mhos 5 - None None 0.03 in 0.0 iph
12/07/2017 13:23 Chemically Wet 32.0F - - 32F 5 0% 0.00 in - 0% 0 mhos 5 - None None 0.03 in 0.0 iph
12/07/2017 13:14 Wet 32.4F - - 32F 5 0% 0.00 in - 0% 0 mhos 7 - None None 0.03 in 0.0 iph
12/07/2017 13:13 Chemically Wet 32.0F - - 32F 5 0% 0.00 in - 0% 0 mhos 8 - None None 0.03 in 0.0 iph
12/07/2017 13:03 Ice Warning 30.9F - - 32F 5 0% - - 99% 0 mhos 15 - None None 0.03 in 0.0 iph
12/07/2017 12:59 Ice Warning 30.7F - - 32F 5 0% - - 99% 0 mhos 18 - None None 0.03 in 0.0 iph
12/07/2017 12:53 Wet 32.2F - - 32F 5 0% 0.00 in - 0% 0 mhos 25 - None None 0.03 in 0.0 iph
12/07/2017 12:44 Ice Warning 31.6F - - 32F 80 0% - - 94% 0 mhos 46 - None None 0.03 in 0.0 iph
12/07/2017 12:43 Ice Warning 31.5F - - 32F 65 0% - - 96% 0 mhos 51 - None None 0.03 in 0.0 iph
Date/Time
(MDT)
Sf
Temp Chem Water Layer Surface Precipitation
Sfc Pvt Sub Frz Factor Pct Dpth DpthThk IcePct Cond Salin FI Type Intens Accum Rate
12/07/2017 12:32 Ice Warning 30.6F - - 32F 10 0% - - 97% 1 mhos 88 - None None 0.03 in 0.0 iph
12/07/2017 12:29 Ice Warning 30.2F - - 32F 5 0% - - 98% 1 mhos 77 - None None 0.03 in 0.0 iph
12/07/2017 12:22 Ice Warning 30.0F - - 32F 5 0% - - 99% 1 mhos 65 - None None 0.03 in 0.0 iph
12/07/2017 12:13 Ice Warning 28.6F - - 32F 5 0% - - 98% 1 mhos 103 - None None 0.03 in 0.0 iph
12/07/2017 12:12 Ice Warning 28.2F - - 32F 5 0% - - 99% 1 mhos 106 - None None 0.03 in 0.0 iph
12/07/2017 12:02 Ice Warning 29.7F - - 32F 35 0% - - 98% 1 mhos 88 - None None 0.03 in 0.0 iph
12/07/2017 11:58 Ice Warning 30.0F - - 32F 5 0% - - 99% 1 mhos 61 - None None 0.03 in 0.0 iph
12/07/2017 11:52 Ice Warning 29.5F - - 32F 5 0% - - 99% 0 mhos 60 - None None 0.03 in 0.0 iph
12/07/2017 11:44 Ice Warning 29.3F - - 32F 5 0% - - 99% 0 mhos 54 - None None 0.03 in 0.0 iph
12/07/2017 11:42 Ice Warning 29.1F - - 32F 5 0% - - 99% 0 mhos 53 - None None 0.03 in 0.0 iph
12/07/2017 11:32 Ice Warning 28.9F - - 32F 5 0% - - 99% 0 mhos 46 - None None 0.03 in 0.0 iph
12/07/2017 11:29 Ice Warning 28.9F - - 32F 5 0% - - 99% 0 mhos 49 - None None 0.03 in 0.0 iph
12/07/2017 11:22 Ice Warning 27.9F - - 32F 5 0% - - 99% 0 mhos 60 - None None 0.03 in 0.0 iph
12/07/2017 11:13 Ice Warning 25.9F - - 32F 5 0% - - 99% 0 mhos 70 - None None 0.03 in 0.0 iph
12/07/2017 11:12 Ice Warning 25.5F - - 32F 5 0% - - 99% 0 mhos 72 - None None 0.03 in 0.0 iph
Date/Time
(MDT)
Sf
Temp Chem Water Layer Surface Precipitation
Sfc Pvt Sub Frz Factor Pct Dpth DpthThk IcePct Cond Salin FI Type Intens Accum Rate
12/07/2017 11:02 Ice Warning 26.2F - - 32F 10 0% - - 99% 1 mhos 118 - None None 0.03 in 0.0 iph
12/07/2017 10:59 Ice Warning 25.7F - - 32F 10 0% - - 99% 1 mhos 124 - None None 0.03 in 0.0 iph
12/07/2017 10:52 Ice Warning 24.6F - - 32F 15 0% - - 99% 1 mhos 119 - None None 0.03 in 0.0 iph
12/07/2017 10:44 Ice Warning 24.1F - - 32F 15 0% - - 99% 1 mhos 126 - None None 0.03 in 0.0 iph
12/07/2017 10:42 Ice Warning 23.7F - - 32F 15 0% - - 99% 1 mhos 135 - None None 0.03 in 0.0 iph
12/07/2017 10:32 Ice Warning 22.8F - - 32F 20 0% - - 99% 1 mhos 129 - None None 0.03 in 0.0 iph
12/07/2017 10:29 Ice Warning 22.3F - - 32F 25 0% - - 99% 1 mhos 129 - None None 0.03 in 0.0 iph
12/07/2017 10:22 Ice Warning 20.8F - - 32F 25 0% - - 99% 1 mhos 133 - None None 0.03 in 0.0 iph
12/07/2017 10:14 Ice Warning 19.8F - - 32F 25 0% - - 99% 0 mhos 135 - None None 0.03 in 0.0 iph
12/07/2017 10:12 Ice Warning 19.6F - - 32F 25 0% - - 99% 0 mhos 138 - None None 0.03 in 0.0 iph
12/07/2017 10:02 Ice Warning 19.9F - - 32F 30 0% - - 99% 1 mhos 137 - None None 0.03 in 0.0 iph
12/07/2017 09:59 Ice Warning 19.9F - - 32F 30 0% - - 99% 1 mhos 138 - None None 0.03 in 0.0 iph
12/07/2017 09:52 Ice Warning 19.2F - - 32F 30 0% - - 99% 0 mhos 138 - None None 0.03 in 0.0 iph
12/07/2017 09:44 Ice Warning 18.3F - - 32F 30 0% - - 99% 0 mhos 141 - None None 0.03 in 0.0 iph
12/07/2017 09:42 Ice Warning 18.3F - - 32F 30 0% - - 99% 0 mhos 140 - None None 0.03 in 0.0 iph
Date/Time
(MDT)
Sf
Temp Chem Water Layer Surface Precipitation
Sfc Pvt Sub Frz Factor Pct Dpth DpthThk IcePct Cond Salin FI Type Intens Accum Rate
12/07/2017 09:31 Ice Warning 17.2F - - 32F 30 0% - - 99% 0 mhos 147 - None None 0.03 in 0.0 iph
12/07/2017 09:29 Ice Warning 17.4F - - 32F 25 0% - - 99% 0 mhos 145 - None None 0.03 in 0.0 iph
12/07/2017 09:21 Ice Warning 17.2F - - 32F 25 0% - - 99% 0 mhos 145 - None None 0.03 in 0.0 iph
12/07/2017 09:14 Ice Warning 16.2F - - 32F 25 0% - - 99% 0 mhos 147 - None None 0.03 in 0.0 iph
12/07/2017 09:11 Ice Warning 16.0F - - 32F 25 0% - - 99% 0 mhos 149 - None None 0.03 in 0.0 iph
12/07/2017 09:01 Ice Warning 14.7F - - 32F 25 1% - - 99% 0 mhos 154 - None None 0.03 in 0.0 iph
12/07/2017 08:58 Ice Warning 14.5F - - 32F 25 1% - - 99% 0 mhos 155 - None None 0.03 in 0.0 iph
12/07/2017 08:51 Ice Warning 13.8F - - 32F 25 1% - - 99% 0 mhos 157 - None None 0.03 in 0.0 iph
12/07/2017 08:43 Ice Warning 13.3F - - 32F 25 1% - - 99% 0 mhos 158 - None None 0.03 in 0.0 iph
12/07/2017 08:41 Ice Warning 13.3F - - 32F 30 1% - - 99% 0 mhos 159 - None None 0.03 in 0.0 iph
12/07/2017 08:31 Ice Warning 13.1F - - 32F 30 1% - - 99% 0 mhos 158 - None None 0.03 in 0.0 iph
12/07/2017 08:28 Ice Warning 12.9F - - 32F 30 1% - - 99% 0 mhos 160 - None None 0.03 in 0.0 iph
12/07/2017 08:21 Ice Warning 12.9F - - 32F 30 1% - - 99% 0 mhos 161 - None None 0.03 in 0.0 iph
12/07/2017 08:13 Ice Warning 12.9F - - 32F 30 1% - - 99% 0 mhos 161 - None None 0.03 in 0.0 iph
12/07/2017 08:11 Ice Warning 12.7F - - 32F 30 1% - - 99% 0 mhos 163 - None None 0.03 in 0.0 iph
Date/Time
(MDT)
Sf
Temp Chem Water Layer Surface Precipitation
Sfc Pvt Sub Frz Factor Pct Dpth DpthThk IcePct Cond Salin FI Type Intens Accum Rate
12/07/2017 08:01 Ice Warning 12.7F - - 32F 30 1% - - 99% 0 mhos 162 - None None 0.03 in 0.0 iph
12/07/2017 07:59 Ice Warning 12.7F - - 32F 30 1% - - 99% 0 mhos 162 - None None 0.03 in 0.0 iph
12/07/2017 07:51 Ice Warning 12.9F - - 32F 30 1% - - 99% 0 mhos 161 - None None 0.03 in 0.0 iph
12/07/2017 07:44 Ice Warning 12.7F - - 32F 35 1% - - 99% 0 mhos 162 - None None 0.03 in 0.0 iph
12/07/2017 07:41 Ice Warning 12.9F - - 32F 35 1% - - 99% 0 mhos 160 - None None 0.03 in 0.0 iph
12/07/2017 07:31 Ice Warning 12.9F - - 32F 35 1% - - 99% 0 mhos 162 - None None 0.03 in 0.0 iph
12/07/2017 07:28 Ice Warning 13.1F - - 32F 35 1% - - 99% 0 mhos 160 - None None 0.03 in 0.0 iph
12/07/2017 07:21 Ice Warning 13.1F - - 32F 35 1% - - 99% 0 mhos 160 - None None 0.03 in 0.0 iph
12/07/2017 07:13 Ice Warning 13.1F - - 32F 35 1% - - 99% 0 mhos 161 - None None 0.03 in 0.0 iph
12/07/2017 07:11 Ice Warning 13.1F - - 32F 35 1% - - 99% 0 mhos 161 - None None 0.03 in 0.0 iph
12/07/2017 07:01 Ice Warning 12.9F - - 32F 35 1% - - 99% 0 mhos 162 - None None 0.03 in 0.0 iph
12/07/2017 06:58 Ice Warning 12.9F - - 32F 35 1% - - 99% 0 mhos 161 - None None 0.03 in 0.0 iph
12/07/2017 06:51 Ice Warning 13.1F - - 32F 35 1% - - 99% 0 mhos 161 - None None 0.03 in 0.0 iph
12/07/2017 06:43 Ice Warning 13.3F - - 32F 35 1% - - 99% 0 mhos 161 - None None 0.03 in 0.0 iph
12/07/2017 06:41 Ice Warning 13.3F - - 32F 40 1% - - 99% 0 mhos 160 - None None 0.03 in 0.0 iph
Date/Time
(MDT)
Sf
Temp Chem Water Layer Surface Precipitation
Sfc Pvt Sub Frz Factor Pct Dpth DpthThk IcePct Cond Salin FI Type Intens Accum Rate
12/07/2017 06:31 Ice Warning 13.3F - - 32F 40 1% - - 99% 0 mhos 160 - None None 0.03 in 0.0 iph
12/07/2017 06:28 Ice Warning 13.5F - - 32F 40 1% - - 99% 0 mhos 160 - None None 0.03 in 0.0 iph
12/07/2017 06:20 Ice Warning 13.6F - - 32F 40 1% - - 99% 0 mhos 159 - None None 0.03 in 0.0 iph
12/07/2017 06:13 Ice Warning 13.8F - - 32F 40 1% - - 99% 0 mhos 159 - None None 0.03 in 0.0 iph
12/07/2017 06:10 Ice Warning 13.8F - - 32F 40 1% - - 99% 0 mhos 158 - None None 0.03 in 0.0 iph
12/07/2017 06:00 Ice Warning 13.6F - - 32F 40 1% - - 99% 0 mhos 158 - None None 0.03 in 0.0 iph
12/07/2017 05:58 Ice Warning 13.6F - - 32F 40 1% - - 99% 0 mhos 158 - None None 0.03 in 0.0 iph
12/07/2017 05:50 Ice Warning 13.6F - - 32F 40 1% - - 99% 0 mhos 157 - None None 0.03 in 0.0 iph
12/07/2017 05:44 Ice Warning 13.6F - - 32F 40 1% - - 99% 0 mhos 156 - None None 0.03 in 0.0 iph
12/07/2017 05:40 Ice Warning 13.6F - - 32F 40 1% - - 99% 0 mhos 157 - None None 0.03 in 0.0 iph
12/07/2017 05:30 Ice Warning 13.5F - - 32F 45 1% - - 99% 0 mhos 158 - None None 0.03 in 0.0 iph
12/07/2017 05:29 Ice Warning 13.5F - - 32F 45 1% - - 99% 0 mhos 158 - None None 0.03 in 0.0 iph
12/07/2017 05:20 Ice Warning 13.5F - - 32F 45 1% - - 99% 0 mhos 157 - None None 0.03 in 0.0 iph
12/07/2017 05:13 Ice Warning 13.5F - - 32F 45 1% - - 99% 0 mhos 158 - None None 0.03 in 0.0 iph
12/07/2017 05:10 Ice Warning 13.5F - - 32F 45 1% - - 99% 0 mhos 160 - None None 0.03 in 0.0 iph
Date/Time
(MDT)
Sf
Temp Chem Water Layer Surface Precipitation
Sfc Pvt Sub Frz Factor Pct Dpth DpthThk IcePct Cond Salin FI Type Intens Accum Rate
12/07/2017 05:00 Ice Warning 13.5F - - 32F 45 1% - - 99% 0 mhos 160 - None None 0.03 in 0.0 iph
12/07/2017 04:58 Ice Warning 13.3F - - 32F 45 1% - - 99% 0 mhos 161 - None None 0.03 in 0.0 iph
12/07/2017 04:50 Ice Warning 13.3F - - 32F 45 1% - - 99% 0 mhos 161 - None None 0.03 in 0.0 iph
12/07/2017 04:43 Ice Warning 13.5F - - 32F 45 1% - - 99% 0 mhos 159 - None None 0.03 in 0.0 iph
12/07/2017 04:40 Ice Warning 13.3F - - 32F 45 1% - - 99% 0 mhos 160 - None None 0.03 in 0.0 iph
12/07/2017 04:30 Ice Warning 13.5F - - 32F 45 1% - - 99% 0 mhos 155 - None None 0.03 in 0.0 iph
12/07/2017 04:28 Ice Warning 13.5F - - 32F 45 1% - - 99% 0 mhos 155 - None None 0.03 in 0.0 iph
12/07/2017 04:20 Ice Warning 13.3F - - 32F 45 1% - - 99% 0 mhos 154 - None None 0.03 in 0.0 iph
12/07/2017 04:13 Ice Warning 13.3F - - 32F 45 1% - - 99% 0 mhos 155 - None None 0.03 in 0.0 iph
12/07/2017 04:10 Ice Warning 13.3F - - 32F 45 1% - - 99% 0 mhos 156 - None None 0.03 in 0.0 iph
12/07/2017 04:00 Ice Warning 13.5F - - 32F 45 1% - - 99% 0 mhos 155 - None None 0.03 in 0.0 iph
12/07/2017 03:58 Ice Warning 13.5F - - 32F 45 1% - - 99% 0 mhos 155 - None None 0.03 in 0.0 iph
12/07/2017 03:49 Ice Warning 13.6F - - 32F 45 1% - - 99% 0 mhos 155 - None None 0.03 in 0.0 iph
12/07/2017 03:43 Ice Warning 13.6F - - 32F 45 1% - - 99% 0 mhos 155 - None None 0.03 in 0.0 iph
12/07/2017 03:39 Ice Warning 13.6F - - 32F 45 1% - - 99% 0 mhos 154 - None None 0.03 in 0.0 iph
Date/Time
(MDT)
Sf
Temp Chem Water Layer Surface Precipitation
Sfc Pvt Sub Frz Factor Pct Dpth DpthThk IcePct Cond Salin FI Type Intens Accum Rate
12/07/2017 03:29 Ice Warning 13.6F - - 32F 45 1% - - 99% 0 mhos 154 - None None 0.03 in 0.0 iph
12/07/2017 03:28 Ice Warning 13.6F - - 32F 45 1% - - 99% 0 mhos 154 - None None 0.03 in 0.0 iph
12/07/2017 03:19 Ice Warning 13.5F - - 32F 45 1% - - 99% 0 mhos 154 - None None 0.03 in 0.0 iph
12/07/2017 03:13 Ice Warning 13.6F - - 32F 45 1% - - 99% 0 mhos 153 - None None 0.03 in 0.0 iph
12/07/2017 03:09 Ice Warning 13.6F - - 32F 45 1% - - 99% 0 mhos 152 - None None 0.03 in 0.0 iph
12/07/2017 02:59 Ice Warning 13.6F - - 32F 45 1% - - 99% 0 mhos 153 - None None 0.03 in 0.0 iph
12/07/2017 02:58 Ice Warning 13.6F - - 32F 45 1% - - 99% 0 mhos 153 - None None 0.03 in 0.0 iph
12/07/2017 02:49 Ice Warning 13.8F - - 32F 45 1% - - 99% 0 mhos 152 - None None 0.03 in 0.0 iph
12/07/2017 02:43 Ice Warning 14.0F - - 32F 45 1% - - 99% 0 mhos 151 - None None 0.03 in 0.0 iph
12/07/2017 02:39 Ice Warning 14.2F - - 32F 45 1% - - 99% 0 mhos 151 - None None 0.03 in 0.0 iph
12/07/2017 02:29 Ice Warning 14.4F - - 32F 45 0% - - 99% 0 mhos 150 - None None 0.03 in 0.0 iph
12/07/2017 02:28 Ice Warning 14.4F - - 32F 45 0% - - 99% 0 mhos 150 - None None 0.03 in 0.0 iph
12/07/2017 02:19 Ice Warning 14.4F - - 32F 45 1% - - 99% 0 mhos 152 - None None 0.03 in 0.0 iph
12/07/2017 02:13 Ice Warning 14.5F - - 32F 45 1% - - 99% 0 mhos 151 - None None 0.03 in 0.0 iph
12/07/2017 02:09 Ice Warning 14.5F - - 32F 45 1% - - 99% 0 mhos 152 - None None 0.03 in 0.0 iph
Date/Time
(MDT)
Sf
Temp Chem Water Layer Surface Precipitation
Sfc Pvt Sub Frz Factor Pct Dpth DpthThk IcePct Cond Salin FI Type Intens Accum Rate
12/07/2017 01:59 Ice Warning 15.1F - - 32F 50 1% - - 99% 0 mhos 152 - None None 0.03 in 0.0 iph
12/07/2017 01:58 Ice Warning 15.1F - - 32F 50 1% - - 99% 0 mhos 152 - None None 0.03 in 0.0 iph
12/07/2017 01:49 Ice Warning 15.3F - - 32F 50 1% - - 99% 0 mhos 151 - None None 0.03 in 0.0 iph
12/07/2017 01:44 Ice Warning 14.9F - - 32F 50 1% - - 99% 0 mhos 151 - None None 0.03 in 0.0 iph
12/07/2017 01:39 Ice Warning 14.5F - - 32F 50 1% - - 99% 0 mhos 152 - None None 0.03 in 0.0 iph
12/07/2017 01:29 Ice Warning 14.4F - - 32F 50 1% - - 99% 0 mhos 151 - None None 0.03 in 0.0 iph
12/07/2017 01:28 Ice Warning 14.4F - - 32F 50 1% - - 99% 0 mhos 151 - None None 0.03 in 0.0 iph
12/07/2017 01:19 Ice Warning 14.2F - - 32F 50 1% - - 99% 0 mhos 151 - None None 0.03 in 0.0 iph
12/07/2017 01:14 Ice Warning 14.0F - - 32F 50 1% - - 99% 0 mhos 150 - None None 0.03 in 0.0 iph
12/07/2017 01:09 Ice Warning 13.8F - - 32F 50 0% - - 99% 0 mhos 149 - None None 0.03 in 0.0 iph
12/07/2017 00:59 Ice Warning 13.6F - - 32F 50 1% - - 99% 0 mhos 151 - None None 0.03 in 0.0 iph
12/07/2017 00:58 Ice Warning 13.6F - - 32F 50 1% - - 99% 0 mhos 151 - None None 0.03 in 0.0 iph
12/07/2017 00:48 Ice Warning 13.8F - - 32F 50 1% - - 99% 0 mhos 151 - None None 0.03 in 0.0 iph
12/07/2017 00:44 Ice Warning 14.0F - - 32F 50 0% - - 99% 0 mhos 149 - None None 0.03 in 0.0 iph
12/07/2017 00:38 Ice Warning 14.0F - - 32F 50 0% - - 99% 0 mhos 149 - None None 0.03 in 0.0 iph
Date/Time
(MDT)
Sf
Temp Chem Water Layer Surface Precipitation
Sfc Pvt Sub Frz Factor Pct Dpth DpthThk IcePct Cond Salin FI Type Intens Accum Rate
12/07/2017 00:29 Ice Warning 14.2F - - 32F 50 0% - - 99% 0 mhos 148 - None None 0.03 in 0.0 iph
12/07/2017 00:28 Ice Warning 14.2F - - 32F 50 0% - - 99% 0 mhos 148 - None None 0.03 in 0.0 iph
12/07/2017 00:18 Ice Warning 14.2F - - 32F 50 0% - - 99% 0 mhos 149 - None None 0.03 in 0.0 iph
12/07/2017 00:14 Ice Warning 14.2F - - 32F 50 0% - - 99% 0 mhos 148 - None None 0.03 in 0.0 iph
12/07/2017 00:08 Ice Warning 14.2F - - 32F 50 0% - - 99% 0 mhos 149 - None None 0.03 in 0.0 iph
12/06/2017 23:59 Ice Warning 14.2F - - 32F 50 0% - - 99% 0 mhos 147 - None None 0.03 in 0.0 iph
12/06/2017 23:58 Ice Warning 14.0F - - 32F 50 0% - - 99% 0 mhos 149 - None None 0.03 in 0.0 iph
12/06/2017 23:48 Ice Warning 14.0F - - 32F 50 0% - - 99% 0 mhos 147 - None None 0.03 in 0.0 iph
12/06/2017 23:44 Ice Warning 14.2F - - 32F 50 0% - - 99% 0 mhos 146 - None None 0.03 in 0.0 iph
12/06/2017 23:38 Ice Warning 14.2F - - 32F 50 0% - - 99% 0 mhos 147 - None None 0.03 in 0.0 iph
12/06/2017 23:29 Ice Warning 14.4F - - 32F 50 0% - - 99% 0 mhos 144 - None None 0.03 in 0.0 iph
12/06/2017 23:28 Ice Warning 14.4F - - 32F 50 0% - - 99% 0 mhos 145 - None None 0.03 in 0.0 iph
12/06/2017 23:18 Ice Warning 14.7F - - 32F 50 0% - - 99% 0 mhos 144 - None None 0.03 in 0.0 iph
12/06/2017 23:14 Ice Warning 14.9F - - 32F 50 0% - - 99% 0 mhos 143 - None None 0.03 in 0.0 iph
12/06/2017 23:08 Ice Warning 15.1F - - 32F 50 0% - - 99% 0 mhos 142 - None None 0.03 in 0.0 iph
Date/Time
(MDT)
Sf
Temp Chem Water Layer Surface Precipitation
Sfc Pvt Sub Frz Factor Pct Dpth DpthThk IcePct Cond Salin FI Type Intens Accum Rate
12/06/2017 22:59 Ice Warning 15.3F - - 32F 50 0% - - 99% 0 mhos 141 - None None 0.03 in 0.0 iph
12/06/2017 22:58 Ice Warning 15.3F - - 32F 50 0% - - 99% 0 mhos 142 - None None 0.03 in 0.0 iph
12/06/2017 22:48 Ice Warning 15.1F - - 32F 50 0% - - 99% 0 mhos 142 - None None 0.03 in 0.0 iph
12/06/2017 22:44 Ice Warning 15.1F - - 32F 50 0% - - 99% 0 mhos 142 - None None 0.03 in 0.0 iph
12/06/2017 22:38 Ice Warning 15.1F - - 32F 50 0% - - 99% 0 mhos 141 - None None 0.03 in 0.0 iph
12/06/2017 22:29 Ice Warning 14.9F - - 32F 50 0% - - 99% 0 mhos 142 - None None 0.03 in 0.0 iph
12/06/2017 22:28 Ice Warning 14.9F - - 32F 50 0% - - 99% 0 mhos 142 - None None 0.03 in 0.0 iph
12/06/2017 22:17 Ice Warning 15.3F - - 32F 50 0% - - 99% 0 mhos 141 - None None 0.03 in 0.0 iph
12/06/2017 22:14 Ice Warning 15.3F - - 32F 50 0% - - 99% 0 mhos 141 - None None 0.03 in 0.0 iph
12/06/2017 22:07 Ice Warning 15.3F - - 32F 55 0% - - 99% 0 mhos 142 - None None 0.03 in 0.0 iph
12/06/2017 21:59 Ice Warning 15.3F - - 32F 50 0% - - 99% 0 mhos 142 - None None 0.03 in 0.0 iph
12/06/2017 21:57 Ice Warning 15.3F - - 32F 50 0% - - 99% 0 mhos 142 - None None 0.03 in 0.0 iph
12/06/2017 21:47 Ice Warning 15.4F - - 32F 50 0% - - 99% 0 mhos 142 - None None 0.03 in 0.0 iph
12/06/2017 21:44 Ice Warning 15.4F - - 32F 50 0% - - 99% 0 mhos 143 - None None 0.03 in 0.0 iph
12/06/2017 21:37 Ice Warning 15.6F - - 32F 50 0% - - 99% 0 mhos 141 - None None 0.03 in 0.0 iph
Date/Time
(MDT)
Sf
Temp Chem Water Layer Surface Precipitation
Sfc Pvt Sub Frz Factor Pct Dpth DpthThk IcePct Cond Salin FI Type Intens Accum Rate
12/06/2017 21:29 Ice Warning 15.6F - - 32F 55 0% - - 99% 0 mhos 141 - None None 0.03 in 0.0 iph
12/06/2017 21:27 Ice Warning 15.4F - - 32F 50 0% - - 99% 0 mhos 143 - None None 0.03 in 0.0 iph
12/06/2017 21:17 Ice Warning 15.3F - - 32F 55 0% - - 99% 0 mhos 143 - None None 0.03 in 0.0 iph
12/06/2017 21:14 Ice Warning 15.3F - - 32F 50 0% - - 99% 0 mhos 143 - None None 0.03 in 0.0 iph
12/06/2017 21:07 Ice Warning 15.3F - - 32F 50 0% - - 99% 0 mhos 143 - None None 0.03 in 0.0 iph
12/06/2017 20:58 Ice Warning 15.3F - - 32F 50 0% - - 99% 0 mhos 142 - None None 0.03 in 0.0 iph
12/06/2017 20:57 Ice Warning 15.3F - - 32F 50 0% - - 99% 0 mhos 143 - None None 0.03 in 0.0 iph
12/06/2017 20:47 Ice Warning 14.7F - - 32F 50 0% - - 99% 0 mhos 143 - None None 0.03 in 0.0 iph
12/06/2017 20:44 Ice Warning 14.7F - - 32F 50 0% - - 99% 0 mhos 142 - None None 0.03 in 0.0 iph
12/06/2017 20:37 Ice Warning 14.7F - - 32F 50 0% - - 99% 0 mhos 144 - None None 0.03 in 0.0 iph
12/06/2017 20:29 Ice Warning 14.9F - - 32F 55 0% - - 99% 0 mhos 143 - None None 0.03 in 0.0 iph
12/06/2017 20:27 Ice Warning 14.9F - - 32F 55 0% - - 99% 0 mhos 143 - None None 0.03 in 0.0 iph
12/06/2017 20:17 Ice Warning 14.5F - - 32F 50 0% - - 99% 0 mhos 143 - None None 0.03 in 0.0 iph
12/06/2017 20:14 Ice Warning 14.5F - - 32F 50 0% - - 99% 0 mhos 142 - None None 0.03 in 0.0 iph
12/06/2017 20:07 Ice Warning 14.5F - - 32F 50 0% - - 99% 0 mhos 142 - None None 0.03 in 0.0 iph
Date/Time
(MDT)
Sf
Temp Chem Water Layer Surface Precipitation
Sfc Pvt Sub Frz Factor Pct Dpth DpthThk IcePct Cond Salin FI Type Intens Accum Rate
12/06/2017 19:59 Ice Warning 14.7F - - 32F 55 0% - - 99% 0 mhos 141 - None None 0.03 in 0.0 iph
12/06/2017 19:57 Ice Warning 14.7F - - 32F 55 0% - - 99% 0 mhos 141 - None None 0.03 in 0.0 iph
12/06/2017 19:47 Ice Warning 14.9F - - 32F 55 0% - - 99% 0 mhos 141 - None None 0.03 in 0.0 iph
12/06/2017 19:44 Ice Warning 14.9F - - 32F 55 0% - - 99% 0 mhos 140 - None None 0.03 in 0.0 iph
12/06/2017 19:37 Ice Warning 14.9F - - 32F 55 0% - - 99% 0 mhos 139 - None None 0.03 in 0.0 iph
12/06/2017 19:28 Ice Warning 14.7F - - 32F 55 0% - - 99% 0 mhos 140 - None None 0.03 in 0.0 iph
12/06/2017 19:27 Ice Warning 14.5F - - 32F 50 0% - - 99% 0 mhos 140 - None None 0.03 in 0.0 iph
12/06/2017 19:16 Ice Warning 14.5F - - 32F 50 0% - - 99% 0 mhos 139 - None None 0.03 in 0.0 iph
12/06/2017 19:14 Ice Warning 14.5F - - 32F 50 0% - - 99% 0 mhos 138 - None None 0.03 in 0.0 iph
12/06/2017 19:06 Ice Warning 14.7F - - 32F 50 0% - - 99% 0 mhos 137 - None None 0.03 in 0.0 iph
12/06/2017 18:59 Ice Warning 14.9F - - 32F 50 0% - - 99% 0 mhos 137 - None None 0.03 in 0.0 iph
12/06/2017 18:56 Ice Warning 15.1F - - 32F 50 0% - - 99% 0 mhos 135 - None None 0.03 in 0.0 iph
12/06/2017 18:46 Ice Warning 15.6F - - 32F 50 0% - - 99% 0 mhos 132 - None None 0.03 in 0.0 iph
12/06/2017 18:44 Ice Warning 15.8F - - 32F 50 0% - - 99% 0 mhos 131 - None None 0.03 in 0.0 iph
Change End Date:

Copyright © 1998-2015 Vaisala, Inc.
All Rights Reserved
Send comments about the data to:
SCAN Web ® is a registered trademark of Vaisala, Inc.
SCAN Web Version 6.0